When you browse on this site, cookies collect data to enhance your experience and personalize the content and advertising you see.
Visit our Privacy Policy to learn more. By continuing to use the site, you agree to this use of cookies and data.
  • In Österreich
  • Länderverzeichnis
  • Für 7 Tage
  • Wassertemperatur
  • Satellitenkarten
  • Wetterkarte
  • News
  • Widgets
  • user-avatar
    Anmelden

    Stündliche Wetter Kleszczewo

    Heute, 20 Februar, Mittwoch

    Zeit Temperatur Niederschläge Wind Luftdruck Luftfeuchtigkeit
    00:00 +3°C° 0 mm 5 m/S 753 mmHg 84%
    01:00 +3°C° 0 mm 4 m/S 753 mmHg 88%
    02:00 +3°C° 0 mm 4 m/S 754 mmHg 89%
    03:00 +3°C° 0 mm 4 m/S 754 mmHg 89%
    04:00 +2°C° 0 mm 5 m/S 754 mmHg 90%
    05:00 +2°C° 0 mm 5 m/S 754 mmHg 88%
    06:00 +2°C° 0 mm 5 m/S 754 mmHg 87%
    07:00 +2°C° 0 mm 5 m/S 755 mmHg 86%
    08:00 +3°C° 0 mm 5 m/S 755 mmHg 83%
    09:00 +3°C° 0 mm 5 m/S 755 mmHg 80%
    10:00 +5°C° 0 mm 5 m/S 756 mmHg 78%
    11:00 +5°C° 0 mm 5 m/S 756 mmHg 75%
    12:00 +5°C° 0 mm 5 m/S 756 mmHg 73%
    13:00 +6°C° 0 mm 4 m/S 757 mmHg 71%
    14:00 +6°C° 0 mm 4 m/S 757 mmHg 71%
    15:00 +7°C° 0 mm 3 m/S 757 mmHg 71%
    16:00 +7°C° 0 mm 3 m/S 757 mmHg 71%
    17:00 +7°C° 0 mm 2 m/S 757 mmHg 74%
    18:00 +7°C° 0 mm 2 m/S 758 mmHg 76%
    19:00 +6°C° 0 mm 2 m/S 758 mmHg 79%
    20:00 +6°C° 0 mm 2 m/S 758 mmHg 80%
    21:00 +6°C° 0 mm 2 m/S 758 mmHg 82%
    22:00 +5°C° 0 mm 3 m/S 759 mmHg 83%
    23:00 +6°C° 0 mm 2 m/S 759 mmHg 85%

    Morgen, 21 Februar, Donnerstag

    Zeit Temperatur Niederschläge Wind Luftdruck Luftfeuchtigkeit
    00:00 +5°C° 0 mm 2 m/S 759 mmHg 87%
    01:00 +5°C° 0 mm 2 m/S 759 mmHg 89%
    02:00 +4°C° 0 mm 3 m/S 759 mmHg 86%
    03:00 +4°C° 0 mm 3 m/S 758 mmHg 84%
    04:00 +4°C° 0 mm 3 m/S 758 mmHg 82%
    05:00 +4°C° 0.1 mm 3 m/S 758 mmHg 82%
    06:00 +4°C° 0.1 mm 4 m/S 758 mmHg 83%
    07:00 +4°C° 0.1 mm 4 m/S 758 mmHg 83%
    08:00 +5°C° 0.3 mm 4 m/S 758 mmHg 82%
    09:00 +5°C° 0.3 mm 5 m/S 758 mmHg 81%
    10:00 +5°C° 0.3 mm 5 m/S 758 mmHg 81%
    11:00 +5°C° 0.7 mm 5 m/S 758 mmHg 82%
    12:00 +4°C° 0.7 mm 6 m/S 757 mmHg 83%
    13:00 +4°C° 0.7 mm 6 m/S 757 mmHg 84%
    14:00 +5°C° 0.6 mm 6 m/S 757 mmHg 84%
    15:00 +6°C° 0.6 mm 5 m/S 757 mmHg 85%
    16:00 +6°C° 0.6 mm 5 m/S 757 mmHg 85%
    17:00 +6°C° 0.3 mm 5 m/S 757 mmHg 86%
    18:00 +6°C° 0.3 mm 5 m/S 757 mmHg 87%
    19:00 +7°C° 0.3 mm 5 m/S 757 mmHg 89%
    20:00 +7°C° 0.3 mm 5 m/S 757 mmHg 89%
    21:00 +7°C° 0.3 mm 5 m/S 757 mmHg 89%
    22:00 +7°C° 0.3 mm 5 m/S 757 mmHg 89%
    23:00 +7°C° 0.2 mm 5 m/S 757 mmHg 89%

    übermorgen, 22 Februar, Freitag

    Zeit Temperatur Niederschläge Wind Luftdruck Luftfeuchtigkeit
    00:00 +7°C° 0.2 mm 5 m/S 758 mmHg 88%
    01:00 +7°C° 0.2 mm 5 m/S 758 mmHg 88%
    02:00 +6°C° 0.1 mm 5 m/S 759 mmHg 88%
    03:00 +6°C° 0.1 mm 5 m/S 759 mmHg 87%
    04:00 +6°C° 0.1 mm 5 m/S 760 mmHg 87%
    05:00 +5°C° 0 mm 5 m/S 761 mmHg 84%
    06:00 +3°C° 0 mm 5 m/S 762 mmHg 82%
    07:00 +1°C° 0 mm 5 m/S 763 mmHg 80%
    08:00 +1°C° 0 mm 5 m/S 764 mmHg 75%
    09:00 0°C° 0 mm 5 m/S 765 mmHg 69%
    10:00 0°C° 0 mm 4 m/S 766 mmHg 64%
    11:00 +1°C° 0 mm 4 m/S 767 mmHg 58%
    12:00 +1°C° 0 mm 4 m/S 768 mmHg 52%
    13:00 +3°C° 0 mm 4 m/S 768 mmHg 46%
    14:00 +3°C° 0 mm 4 m/S 769 mmHg 46%
    15:00 +2°C° 0 mm 3 m/S 769 mmHg 46%
    16:00 +2°C° 0 mm 3 m/S 770 mmHg 45%
    17:00 +1°C° 0 mm 3 m/S 770 mmHg 50%
    18:00 +1°C° 0 mm 2 m/S 771 mmHg 54%
    19:00 -1°C° 0 mm 2 m/S 771 mmHg 59%
    20:00 -1°C° 0 mm 2 m/S 772 mmHg 59%
    21:00 -2°C° 0 mm 2 m/S 772 mmHg 59%
    22:00 -2°C° 0 mm 2 m/S 772 mmHg 59%
    23:00 -3°C° 0 mm 2 m/S 773 mmHg 57%

    23 Februar, Samstag

    Zeit Temperatur Niederschläge Wind Luftdruck Luftfeuchtigkeit
    00:00 -3°C° 0 mm 2 m/S 773 mmHg 55%
    01:00 -4°C° 0 mm 3 m/S 773 mmHg 53%
    02:00 -3°C° 0 mm 2 m/S 773 mmHg 52%
    03:00 -3°C° 0 mm 2 m/S 773 mmHg 50%
    04:00 -3°C° 0 mm 2 m/S 772 mmHg 49%
    05:00 -3°C° 0 mm 2 m/S 773 mmHg 48%
    06:00 -3°C° 0 mm 2 m/S 773 mmHg 47%
    07:00 -3°C° 0 mm 2 m/S 773 mmHg 47%
    08:00 -3°C° 0 mm 2 m/S 773 mmHg 42%
    09:00 -2°C° 0 mm 2 m/S 773 mmHg 38%
    10:00 -1°C° 0 mm 2 m/S 774 mmHg 34%
    11:00 +1°C° 0 mm 2 m/S 773 mmHg 31%
    12:00 +1°C° 0 mm 2 m/S 773 mmHg 28%
    13:00 +2°C° 0 mm 2 m/S 773 mmHg 25%
    14:00 +2°C° 0 mm 2 m/S 773 mmHg 26%
    15:00 +3°C° 0 mm 1 m/S 772 mmHg 27%
    16:00 +3°C° 0 mm 1 m/S 772 mmHg 28%
    17:00 +2°C° 0 mm 1 m/S 772 mmHg 31%
    18:00 +2°C° 0 mm 1 m/S 772 mmHg 33%
    19:00 +1°C° 0 mm 1 m/S 772 mmHg 36%
    20:00 0°C° 0 mm 1 m/S 772 mmHg 37%
    21:00 0°C° 0 mm 1 m/S 772 mmHg 37%
    22:00 0°C° 0 mm 1 m/S 772 mmHg 38%
    23:00 0°C° 0 mm 1 m/S 772 mmHg 37%

    24 Februar, Sonntag

    Zeit Temperatur Niederschläge Wind Luftdruck Luftfeuchtigkeit
    00:00 0°C° 0 mm 1 m/S 771 mmHg 37%
    01:00 0°C° 0 mm 1 m/S 771 mmHg 37%
    02:00 0°C° 0 mm 1 m/S 771 mmHg 37%
    03:00 -1°C° 0 mm 0 m/S 771 mmHg 37%
    04:00 -1°C° 0 mm 0 m/S 771 mmHg 36%
    05:00 -1°C° 0 mm 0 m/S 770 mmHg 36%
    06:00 -1°C° 0 mm 0 m/S 770 mmHg 35%
    07:00 -1°C° 0 mm 0 m/S 770 mmHg 35%
    08:00 0°C° 0 mm 0 m/S 770 mmHg 32%
    09:00 +1°C° 0 mm 0 m/S 770 mmHg 29%
    10:00 +2°C° 0 mm 0 m/S 771 mmHg 27%
    11:00 +3°C° 0 mm 0 m/S 770 mmHg 26%
    12:00 +4°C° 0 mm 0 m/S 770 mmHg 26%
    13:00 +5°C° 0 mm 0 m/S 770 mmHg 25%
    14:00 +6°C° 0 mm 1 m/S 770 mmHg 30%
    15:00 +6°C° 0 mm 1 m/S 769 mmHg 34%
    16:00 +6°C° 0 mm 1 m/S 769 mmHg 38%
    17:00 +5°C° 0 mm 1 m/S 769 mmHg 41%
    18:00 +3°C° 0 mm 1 m/S 769 mmHg 44%
    19:00 +1°C° 0 mm 0 m/S 769 mmHg 46%
    20:00 +1°C° 0 mm 0 m/S 770 mmHg 48%
    21:00 +1°C° 0 mm 0 m/S 770 mmHg 49%
    22:00 +2°C° 0 mm 1 m/S 770 mmHg 50%
    23:00 +2°C° 0 mm 1 m/S 770 mmHg 51%

    25 Februar, Montag

    Zeit Temperatur Niederschläge Wind Luftdruck Luftfeuchtigkeit
    00:00 +2°C° 0 mm 1 m/S 770 mmHg 53%
    01:00 +1°C° 0 mm 1 m/S 770 mmHg 54%
    02:00 +2°C° 0 mm 1 m/S 770 mmHg 55%
    03:00 +2°C° 0 mm 1 m/S 769 mmHg 56%
    04:00 +1°C° 0 mm 2 m/S 769 mmHg 57%
    05:00 +1°C° 0 mm 2 m/S 769 mmHg 59%
    06:00 -1°C° 0 mm 2 m/S 769 mmHg 61%
    07:00 -1°C° 0 mm 2 m/S 769 mmHg 63%
    08:00 +2°C° 0 mm 2 m/S 770 mmHg 61%
    09:00 +3°C° 0 mm 2 m/S 770 mmHg 58%
    10:00 +4°C° 0 mm 2 m/S 770 mmHg 55%
    11:00 +5°C° 0 mm 2 m/S 770 mmHg 56%
    12:00 +7°C° 0 mm 3 m/S 770 mmHg 57%
    13:00 +8°C° 0 mm 3 m/S 770 mmHg 58%
    14:00 +8°C° 0 mm 3 m/S 769 mmHg 61%
    15:00 +8°C° 0 mm 2 m/S 769 mmHg 63%
    16:00 +8°C° 0 mm 2 m/S 769 mmHg 66%
    17:00 +7°C° 0 mm 2 m/S 769 mmHg 72%
    18:00 +6°C° 0 mm 2 m/S 770 mmHg 78%
    19:00 +5°C° 0 mm 1 m/S 770 mmHg 85%
    20:00 +5°C° 0 mm 1 m/S 770 mmHg 85%
    21:00 +4°C° 0 mm 1 m/S 770 mmHg 86%
    22:00 +4°C° 0 mm 1 m/S 770 mmHg 87%
    23:00 +4°C° 0 mm 1 m/S 770 mmHg 86%
    Mehr zeigen